Main page
METAR-TAF:

METAR-TAF

Airports :

Bandar Lengeh, Iran

Bandar Lengeh Airport

latitude: 26-35N, longitude: 054-50E, elevation: 14 m

Current weather observation

The report was made 2 hours and 20 minutes ago, at 18:00 UTC
Calm wind
Temperature 17°C
Humidity 77%
Pressure 1020 hPa
Visibility 10 km or more
no clouds below 1500 m and no cumulonimbus

METAR: OIBL 181800Z 00000KT CAVOK 17/13 Q1020

Time: 23:50 (20:20 UTC)


TAF: missing

Weather observations and forecasts of more than 4000 airports (METAR and TAF reports).

The available stations are represented by yellow and red dots on the map.

Hover mouse over dot to see the name of the station.

Then click to see weather observations and forecasts.

To change the map : click on the green buttons with a black cross to zoom in, on the green button with a dash to zoom out, or on the green arrows for adjacent maps.


METAR-TAF: